CZ-6A DEB

Satellite information

Favourite Embed

Satellite Type and Status

DEBRISIN ORBIT

Key statistics

Satellite CZ-6A DEB at a glance.

Uptime

274

Days in orbit

Revolutions

≈ 14.2

Per day

Orbit

LEO

Low Earth Orbit

Inclination

89.0

Latest

Satellite identification and parameters

Extended collection of information and parameters for CZ-6A DEB.

Object identification

Identified? True

Debris? True

Object name: CZ-6A DEB

International designator: 2024-140FP

Object number (NORAD): 60788

Object ID (CCSDS): 60788

Country: PEOPLES REPUBLIC OF CHINA (PRC)

Current information (Y/N): Y

RCS size: SMALL

Orbital parameters

Period: 101.326 minutes

Inclination: 88.9625 deg

SMA: 7199.594 km

Apoapsis: 853.968 km

Periapsis: 788.951 km

RAAN: 319.2877 deg

Eccentricy: 0.0045153

Argument of periapsis: 78.845 deg

Mean anomaly: 281.7812 deg

Mean motion: 14.21152626 rev/day

Mean motion (dot): 0.00001959 rev/day2

B* drag term: 0.00088597 1/REarth

Two-line elements (TLE)

Creation date: May 7, 2025, 3:14 a.m.

Reference frame: TEME

Reference center: EARTH

Epoch: May 6, 2025, 12:52 a.m. UTC

TLE line 0: 0 CZ-6A DEB

TLE line 1: 1 60788U 24140FP 25126.03653427 .00001959 00000-0 88597-3 0 9990

TLE line 2: 2 60788 88.9625 319.2877 0045153 78.8450 281.7812 14.21152626 35698

Live tracking on map

Real-time ground track for satellite CZ-6A DEB.

In-orbit conjunctions

A list of the most updated potential collisions computed for object CZ-6A DEB.

Target Orbit TCA Probability of collision Miss distance Type
NOAA 16 DEB SSO 2025-03-02 21:01:50 0.0001830297 928.0 (m) DEBRIS
FENGYUN 1C DEB SSO 2025-02-09 13:14:46 0.0001333192 821.0 (m) DEBRIS
COSMOS 2251 DEB LEO 2025-01-31 22:59:34 0.0001433896 147.0 (m) DEBRIS
CZ-6A DEB LEO 2025-01-11 02:50:25 0.0007871826 996.0 (m) DEBRIS
CZ-6A DEB LEO 2024-11-15 00:23:18 0.001427099 173.0 (m) DEBRIS

Associated space launch

18 Low Earth Orbit communication satellites with Ku, Q and V band payloads for the G60 constellation operated by Shanghai Spacecom Satellite Technology (SSST) with funding backed by the Shanghai local government. Initial constellation will consist of 1296 satellites by 2027 with long term plans to expand it to 12000 satellites.

CZ-6A DEB was lifted into orbit during the mission ‘Long March 6A | G60 Polar Group 01’, on board a Long March 6A space rocket.

The launch took place on Aug. 6, 2024, 6:42 a.m. from Launch Complex 9A.

For more information about the launch, click the button.

Launch to space Long March 6A | G60 Polar Group 01
Long March 6A | G60 Polar Group 01

Agency: N/A

Status: Launch Successful

Launch date: Aug. 6, 2024, 6:42 a.m. UTC

Rocket: Long March 6A

Launch pad: Launch Complex 9A

Location: Taiyuan Satellite Launch Center, People's Republic of China

...

Latest news about this satellite

News about space launch
Brightness of first Chinese broadband constellation satellites alarms astronomers

The first satellites of a Chinese broadband constellation are significantly brighter than those of Western systems, posing a new challenge for astronomers.

News about space launch
Chinese rocket stage breaks up into cloud of more than 700 pieces of space debris

HELSINKI — A Chinese Long March 6A rocket’s upper stage has fragmented into a cloud of over 700 pieces of space debris, adding to concerns about long-term orbital safety. China […]

News about space launch
China's Thousand Sails Megaconstellation Kicks Off with Dangerous Debris Field

China's Thousand Sails Megaconstellation Kicks Off with Dangerous Debris Field


Newsletter sign-up

Weekly statistics, charts and insights to help you stay on top of the space industry.